Location: Unspecified
(0.0000°N, 0.0000°E)
Time: 11:10:39
(UTC+00:00)

Vanguard 2 - Pass Details

Date: 20 November 2019
Orbit: 553 x 2938 km, 32.9° (Epoch: 14 December)

Event Time Altitude Azimuth Distance (km) Brightness Sun altitude
Rises 15:16:06 0° 321° (NW) 2,703 10.5 34.9°
Reaches altitude 10° 15:18:21 10° 332° (NNW) 1,831 9.6 34.3°
Maximum altitude 15:21:59 33° 38° (NE) 1,040 8.1 33.5°
Drops below altitude 10° 15:26:29 10° 102° (ESE) 2,289 9.6 32.5°
Sets 15:29:38 0° 111° (ESE) 3,517 10.6 31.8°
